Regional Weather Roundup
Issued by NWS

Home | Current Version | Previous Version | Text Only | Print | Product List | Glossary On
Versions: 1 2 3 4 5 6 7 8 9 10 11 12 13 14 15 16 17 18 19 20 21 22 23 24 25 26 27 28 29 30 31 32 33 34 35 36 37 38 39 40 41 42 43 44 45 46 47 48 49 50
000
ASUS43 KMKX 121059
RWRWI

WISCONSIN REGIONAL WEATHER ROUNDUP
NATIONAL WEATHER SERVICE MILWAUKEE/SULLIVAN WI
500 AM CST TUE DEC 12 2017

NOTE: "FAIR" INDICATES FEW OR NO CLOUDS BELOW 12,000 FEET WITH NO
SIGNIFICANT WEATHER AND/OR OBSTRUCTIONS TO VISIBILITY.

WIZ001-002-006>008-014>016-023>028-121200-
NORTHWEST WISCONSIN

CITY           SKY/WX    TMP DP  RH WIND       PRES   REMARKS
SUPERIOR ARPT  CLOUDY     4   0  81 W9        30.21F WCI -10
ASHLAND        CLEAR      6  -1  73 W5        30.15F WCI  -3
HAYWARD        CLEAR      4  -2  76 CALM      30.14S
SIREN          CLOUDY     6   1  81 NW7       30.20S WCI  -6
CUMBERLAND     CLEAR      7   1  78 NW12      30.16R WCI  -9
RICE LAKE      CLEAR      5   1  84 CALM      30.19R
CHETEK         CLEAR      6   1  81 CALM      30.17R
LADYSMITH      CLOUDY     9   2  74 NW7G18    30.14R WCI  -2
EAU CLAIRE     CLEAR      6   0  76 NW7       30.18S WCI  -6
MENOMONIE      CLEAR      9   5  85 W9        30.20S WCI  -5
NEW RICHMOND   CLOUDY     7   2  80 NW12      30.21S WCI  -9
OSCEOLA        CLOUDY     7   2  81 W7        30.26S WCI  -5
$$

WIZ003>005-009-010-017-018-121200-
NORTH CENTRAL WISCONSIN

CITY           SKY/WX    TMP DP  RH WIND       PRES   REMARKS
MANITOWISH WTR FLURRIES  10   5  80 NW8G17    30.01R WCI  -3
ARBOR VITAE    CLOUDY    12   5  74 NW13      29.99S WCI  -3
WOODRUFF       CLOUDY    12   5  74 NW13      29.99S WCI  -3
RHINELANDER    FLURRIES  11   4  73 NW6G22    29.99S WCI   1
EAGLE RIVER    CLOUDY    10   2  69 NW10G17   29.98R WCI  -4
LAND O LAKES   CLOUDY    10   4  78 N13       29.99R WCI  -6
PHILLIPS       CLOUDY     9   1  72 NW10      30.06R WCI  -6
TOMAHAWK       CLOUDY    10   3  73 NW9       30.03S WCI  -3
MEDFORD        CLOUDY     9   1  69 NW15G22   30.04S WCI  -7
MERRILL        CLOUDY    12   3  67 NW10G16   30.05R WCI  -1
$$

WIZ029-030-035-036-043>047-121200-
CENTRAL WISCONSIN

CITY           SKY/WX    TMP DP  RH WIND       PRES   REMARKS
WAUSAU         CLOUDY    12   3  67 NW17G25   30.04R WCI  -5
MOSINEE        CLOUDY    12   5  73 NW16      30.06S WCI  -4
MARSHFIELD     CLOUDY    11   3  70 NW15      30.06R WCI  -5
STEVENS POINT  CLOUDY    12   2  63 NW10G16   30.06S WCI  -1
WAUPACA        CLOUDY    18   5  56 NW13G20   30.06R WCI   5
WAUTOMA        CLOUDY    14   3  61 NW14G21   30.08R WCI  -1
WISC RAPIDS    CLOUDY    13   5  70 N8        30.09S WCI   2
CAMP DOUGLAS   CLOUDY    13   4  68 NW15      30.11R WCI  -3
$$

WIZ011>013-019>022-031-037>040-048>050-121200-
NORTHEAST WISCONSIN

CITY           SKY/WX    TMP DP  RH WIND       PRES   REMARKS
ANTIGO         LGT SNOW  11   7  82 NW14      29.98S WCI  -5
SHAWANO        CLOUDY    17   5  57 NW12G17   30.04R WCI   5
OCONTO         CLOUDY    14   1  55 N10G21    30.03S WCI   1
STURGEON BAY   MOCLDY    13   1  59 NW28G36   29.99S WCI  -8
GREEN BAY      MOCLDY    16   4  59 NW15      30.03S WCI   1
MANITOWOC      CLOUDY    16   4  59 N22G28    30.01S WCI  -2
APPLETON       CLOUDY    18   5  57 NW12G22   30.01R WCI   5
CLINTONVILLE   CLOUDY    16   1  53 NW13G21   30.04R WCI   2
OSHKOSH        CLOUDY    17   5  59 NW12G25   30.03R WCI   4
$$

WIZ032>034-041-042-053>061-121200-
SOUTHWEST WISCONSIN

CITY           SKY/WX    TMP DP  RH WIND       PRES   REMARKS
LA CROSSE      CLEAR     12   4  70 NW9       30.19R WCI   0
SPARTA         FLURRIES  15   8  75 W8G16     30.15S WCI   4
VIROQUA        PTCLDY    11   7  81 NW14      30.10S WCI  -4
BOSCOBEL       CLEAR     16   6  65 NW3       30.16S
PRAIRIE DU CHI CLEAR     16   7  66 NW13      30.17S WCI   2
PLATTEVILLE    CLEAR     16  11  81 NW10      30.11S WCI   3
$$

WIZ056-057-062-063-064-067-068-121200-
SOUTH CENTRAL WISCONSIN

CITY           SKY/WX    TMP DP  RH WIND       PRES   REMARKS
REEDSBURG      CLOUDY    14   5  65 NW12G18   30.10S WCI   1
BARABOO/DELLS  PTCLDY    14   5  66 NW12G18   30.08S WCI   0
LONE ROCK      MOCLDY    15   7  70 NW14      30.13S WCI   0
MINERAL POINT  CLEAR     18  10  73 NW9G16    30.08S WCI   6
MADISON        PTCLDY    15   5  64 NW12G24   30.07S WCI   2
MIDDLETON      CLOUDY    18   8  66 NW16      30.08S WCI   3
WATERTOWN      CLEAR     15   8  73 NW12      30.04R WCI   2
MONROE         CLEAR     16   7  67 NW16G22   30.06S WCI   0
JANESVILLE     CLEAR     19   9  63 NW12G21   30.06S WCI   7
$$

WIZ051-052-058>065-066-070>072-121200-
SOUTHEAST WISCONSIN

CITY           SKY/WX    TMP DP  RH WIND       PRES   REMARKS
MILWAUKEE      MOCLDY    20   6  55 NW17G30   30.01R WCI   5
WAUKESHA       CLOUDY    18   9  68 NW13G18   30.02R WCI   4
MILWAUKEE/TIMM CLOUDY    19   3  49 NW18G26   30.02R WCI   4
RACINE         CLOUDY    20   6  55 N16G26    30.03R WCI   6
BURLINGTON     PTCLDY    28  22  78 NW13G20   30.03R WCI  17
KENOSHA        CLOUDY    20   9  62 NW14G25   30.02R WCI   7
FOND DU LAC    CLOUDY    18   3  52 NW21G33   30.03R WCI   1
SHEBOYGAN      CLEAR     15   4  61 N15       30.01R WCI   0
WEST BEND      PTCLDY    18   5  57 NW17G23   30.00R WCI   2
JUNEAU         CLEAR     14   6  70 NW10G17   30.04S WCI   1
$$

LSZ147-162-121200-
LAKE SUPERIOR

STATION/POSITION TIME  TEMP    WIND        PRES    WAVE
                       AIR SEA DIR/SP/G            HT/PER
                 (UTC) (F)     (DEG/KT/KT) (MB)    (FT/S)
DEVILS ISLAND    1000   12     310/ 14/ 16 1022.7R
SAXON HARBOR     1040   16                 1020.0S
$$

LMZ867-665-643>646-121200-
LAKE MICHIGAN

STATION/POSITION TIME  TEMP    WIND        PRES    WAVE
                       AIR SEA DIR/SP/G            HT/PER
                 (UTC) (F)     (DEG/KT/KT) (MB)    (FT/S)
NORTHPORT PIER   1040   17     310/ 28/ 38 1014.9R
KEWAUNEE LAKESHO 1030   15     340/ 13/ 17 1015.6R
SHEBOYGAN LAKESH 1000   18     330/ 13/ 15 1016.8R
PORT WASHINGTON  1040   19     330/  6/ 14 1017.3R
MILWAUKEE LAKESH 1030   21     320/ 10/ 12   N/A
KENOSHA   LAKESH 1000   21     320/ 14/ 20 1016.3
$$

TC  - TEMPERATURE IN CELSIUS
VSB - VISIBILITY IN STATUTE MILES
WCI - WIND CHILL INDEX
HX  - HEAT INDEX





USA.gov is the U.S. government's official web portal to all federal, state and local government web resources and services.